When you browse on this site, cookies collect data to enhance your experience and personalize the content and advertising you see.
Visit our Privacy Policy to learn more. By continuing to use the site, you agree to this use of cookies and data.
  • In Hungary
  • List of Countries
  • For 7 days
  • Water Temperature
  • Satellite Maps
  • Weather Map
  • News
  • Weather Widgets
  • user-avatar
    Login

    Hourly Weather Comayagua

    Today, 19 July, Friday

    Time Temperature Precipitation Wind Pressure Humidity
    00:00 +22°C° 0 mm 1 mps 708 mmHg 93%
    01:00 +22°C° 0 mm 1 mps 708 mmHg 93%
    02:00 +22°C° 0 mm 1 mps 708 mmHg 94%
    03:00 +21°C° 0 mm 1 mps 707 mmHg 94%
    04:00 +21°C° 0 mm 1 mps 707 mmHg 95%
    05:00 +21°C° 0 mm 1 mps 707 mmHg 95%
    06:00 +21°C° 0 mm 1 mps 708 mmHg 95%
    07:00 +24°C° 0 mm 1 mps 708 mmHg 84%
    08:00 +26°C° 0 mm 1 mps 709 mmHg 72%
    09:00 +29°C° 0 mm 2 mps 710 mmHg 61%
    10:00 +30°C° 0 mm 2 mps 709 mmHg 56%
    11:00 +31°C° 0 mm 2 mps 709 mmHg 51%
    12:00 +34°C° 0 mm 2 mps 709 mmHg 46%
    13:00 +32°C° 0 mm 2 mps 709 mmHg 47%
    14:00 +32°C° 0 mm 2 mps 708 mmHg 49%
    15:00 +32°C° 0 mm 2 mps 707 mmHg 50%
    16:00 +30°C° 0.1 mm 2 mps 707 mmHg 59%
    17:00 +29°C° 0.1 mm 2 mps 707 mmHg 68%
    18:00 +27°C° 0.1 mm 1 mps 707 mmHg 78%
    19:00 +26°C° 0.4 mm 1 mps 707 mmHg 83%
    20:00 +25°C° 0.4 mm 1 mps 708 mmHg 89%
    21:00 +23°C° 0.4 mm 1 mps 708 mmHg 94%
    22:00 +23°C° 0 mm 1 mps 708 mmHg 95%
    23:00 +23°C° 0 mm 1 mps 708 mmHg 96%

    Tomorrow, 20 July, Saturday

    Time Temperature Precipitation Wind Pressure Humidity
    00:00 +23°C° 0 mm 1 mps 708 mmHg 96%
    01:00 +22°C° 0 mm 1 mps 707 mmHg 97%
    02:00 +22°C° 0 mm 1 mps 707 mmHg 97%
    03:00 +22°C° 0 mm 1 mps 706 mmHg 98%
    04:00 +23°C° 0 mm 1 mps 707 mmHg 98%
    05:00 +23°C° 0 mm 1 mps 707 mmHg 98%
    06:00 +23°C° 0 mm 1 mps 707 mmHg 97%
    07:00 +25°C° 0 mm 1 mps 708 mmHg 89%
    08:00 +27°C° 0 mm 1 mps 708 mmHg 80%
    09:00 +29°C° 0 mm 2 mps 709 mmHg 71%
    10:00 +30°C° 0 mm 2 mps 708 mmHg 65%
    11:00 +31°C° 0 mm 2 mps 708 mmHg 59%
    12:00 +34°C° 0 mm 2 mps 708 mmHg 52%
    13:00 +32°C° 1 mm 2 mps 708 mmHg 56%
    14:00 +32°C° 1 mm 2 mps 707 mmHg 60%
    15:00 +31°C° 1 mm 2 mps 707 mmHg 64%
    16:00 +29°C° 1.5 mm 2 mps 707 mmHg 72%
    17:00 +28°C° 1.5 mm 2 mps 707 mmHg 80%
    18:00 +26°C° 1.5 mm 1 mps 707 mmHg 88%
    19:00 +25°C° 0.1 mm 1 mps 707 mmHg 90%
    20:00 +25°C° 0.1 mm 1 mps 708 mmHg 91%
    21:00 +24°C° 0.1 mm 1 mps 708 mmHg 93%
    22:00 +24°C° 0 mm 1 mps 708 mmHg 94%
    23:00 +24°C° 0 mm 1 mps 707 mmHg 94%

    Day after tomorrow, 21 July, Sunday

    Time Temperature Precipitation Wind Pressure Humidity
    00:00 +23°C° 0 mm 1 mps 707 mmHg 94%
    01:00 +23°C° 0 mm 1 mps 707 mmHg 94%
    02:00 +23°C° 0 mm 1 mps 707 mmHg 95%
    03:00 +22°C° 0 mm 1 mps 706 mmHg 95%
    04:00 +22°C° 0 mm 1 mps 707 mmHg 95%
    05:00 +22°C° 0 mm 1 mps 707 mmHg 95%
    06:00 +22°C° 0 mm 1 mps 707 mmHg 96%
    07:00 +25°C° 0 mm 1 mps 708 mmHg 85%
    08:00 +27°C° 0 mm 1 mps 708 mmHg 75%
    09:00 +29°C° 0 mm 2 mps 709 mmHg 64%
    10:00 +30°C° 0 mm 2 mps 709 mmHg 59%
    11:00 +32°C° 0 mm 2 mps 708 mmHg 54%
    12:00 +34°C° 0 mm 2 mps 708 mmHg 49%
    13:00 +34°C° 0 mm 3 mps 708 mmHg 47%
    14:00 +35°C° 0 mm 3 mps 707 mmHg 45%
    15:00 +35°C° 0 mm 3 mps 707 mmHg 43%
    16:00 +32°C° 0.1 mm 2 mps 707 mmHg 50%
    17:00 +30°C° 0.1 mm 2 mps 707 mmHg 57%
    18:00 +29°C° 0.1 mm 1 mps 707 mmHg 65%
    19:00 +27°C° 0 mm 1 mps 707 mmHg 70%
    20:00 +26°C° 0 mm 1 mps 708 mmHg 76%
    21:00 +22°C° 0 mm 0 mps 708 mmHg 81%
    22:00 +24°C° 0 mm 1 mps 708 mmHg 84%
    23:00 +23°C° 0 mm 1 mps 708 mmHg 87%

    22 July, Monday

    Time Temperature Precipitation Wind Pressure Humidity
    00:00 +23°C° 0 mm 1 mps 708 mmHg 90%
    01:00 +23°C° 0 mm 1 mps 708 mmHg 92%
    02:00 +23°C° 0 mm 1 mps 707 mmHg 93%
    03:00 +20°C° 0 mm 0 mps 707 mmHg 95%
    04:00 +22°C° 0 mm 1 mps 707 mmHg 95%
    05:00 +22°C° 0 mm 1 mps 707 mmHg 95%
    06:00 +22°C° 0 mm 1 mps 708 mmHg 95%
    07:00 +25°C° 0 mm 1 mps 708 mmHg 83%
    08:00 +28°C° 0 mm 1 mps 709 mmHg 70%
    09:00 +30°C° 0 mm 1 mps 710 mmHg 58%
    10:00 +32°C° 0 mm 2 mps 709 mmHg 52%
    11:00 +34°C° 0 mm 2 mps 709 mmHg 46%
    12:00 +35°C° 0 mm 2 mps 709 mmHg 39%
    13:00 +35°C° 0 mm 3 mps 708 mmHg 39%
    14:00 +35°C° 0 mm 3 mps 708 mmHg 38%
    15:00 +35°C° 0 mm 3 mps 707 mmHg 38%
    16:00 +32°C° 0.2 mm 2 mps 707 mmHg 50%
    17:00 +29°C° 0.2 mm 2 mps 707 mmHg 62%
    18:00 +27°C° 0.2 mm 1 mps 707 mmHg 74%
    19:00 +26°C° 0.1 mm 1 mps 708 mmHg 79%
    20:00 +25°C° 0.1 mm 1 mps 708 mmHg 83%
    21:00 +24°C° 0.1 mm 1 mps 708 mmHg 88%
    22:00 +24°C° 0 mm 1 mps 709 mmHg 89%
    23:00 +23°C° 0 mm 1 mps 709 mmHg 91%

    23 July, Tuesday

    Time Temperature Precipitation Wind Pressure Humidity
    00:00 +23°C° 0 mm 1 mps 709 mmHg 93%
    01:00 +23°C° 0 mm 1 mps 708 mmHg 94%
    02:00 +20°C° 0 mm 0 mps 708 mmHg 95%
    03:00 +20°C° 0 mm 0 mps 708 mmHg 96%
    04:00 +20°C° 0 mm 0 mps 708 mmHg 96%
    05:00 +20°C° 0 mm 0 mps 708 mmHg 96%
    06:00 +20°C° 0 mm 0 mps 708 mmHg 96%
    07:00 +24°C° 0 mm 1 mps 709 mmHg 83%
    08:00 +27°C° 0 mm 1 mps 709 mmHg 70%
    09:00 +30°C° 0 mm 1 mps 710 mmHg 56%
    10:00 +31°C° 0 mm 1 mps 710 mmHg 49%
    11:00 +34°C° 0 mm 2 mps 709 mmHg 42%
    12:00 +35°C° 0 mm 2 mps 709 mmHg 34%
    13:00 +35°C° 0 mm 2 mps 709 mmHg 35%
    14:00 +35°C° 0 mm 2 mps 708 mmHg 35%
    15:00 +35°C° 0 mm 2 mps 707 mmHg 35%
    16:00 +32°C° 0.1 mm 2 mps 707 mmHg 46%
    17:00 +30°C° 0.1 mm 2 mps 708 mmHg 58%
    18:00 +28°C° 0.1 mm 1 mps 708 mmHg 69%
    19:00 +27°C° 0.2 mm 1 mps 708 mmHg 76%
    20:00 +25°C° 0.2 mm 1 mps 709 mmHg 83%
    21:00 +24°C° 0.2 mm 1 mps 709 mmHg 89%
    22:00 +23°C° 0.1 mm 1 mps 709 mmHg 90%
    23:00 +23°C° 0.1 mm 1 mps 709 mmHg 91%

    24 July, Wednesday

    Time Temperature Precipitation Wind Pressure Humidity
    00:00 +23°C° 0.1 mm 1 mps 708 mmHg 93%
    01:00 +22°C° 0 mm 1 mps 708 mmHg 93%
    02:00 +20°C° 0 mm 0 mps 708 mmHg 94%
    03:00 +20°C° 0 mm 0 mps 707 mmHg 95%
    04:00 +20°C° 0 mm 0 mps 708 mmHg 95%
    05:00 +22°C° 0 mm 1 mps 708 mmHg 95%
    06:00 +22°C° 0 mm 1 mps 708 mmHg 95%
    07:00 +24°C° 0 mm 1 mps 708 mmHg 85%
    08:00 +27°C° 0 mm 1 mps 709 mmHg 75%
    09:00 +29°C° 0 mm 1 mps 710 mmHg 64%
    10:00 +31°C° 0 mm 2 mps 709 mmHg 56%
    11:00 +32°C° 0 mm 2 mps 709 mmHg 48%
    12:00 +35°C° 0 mm 2 mps 709 mmHg 39%
    13:00 +35°C° 0 mm 2 mps 708 mmHg 39%
    14:00 +35°C° 0 mm 2 mps 708 mmHg 39%
    15:00 +35°C° 0 mm 2 mps 707 mmHg 39%
    16:00 +32°C° 0 mm 2 mps 707 mmHg 50%
    17:00 +30°C° 0 mm 2 mps 707 mmHg 60%
    18:00 +28°C° 0 mm 2 mps 707 mmHg 71%
    19:00 +27°C° 1.2 mm 2 mps 708 mmHg 79%
    20:00 +25°C° 1.2 mm 1 mps 708 mmHg 87%
    21:00 +24°C° 1.2 mm 1 mps 708 mmHg 96%
    22:00 +24°C° 1 mm 1 mps 708 mmHg 96%
    23:00 +24°C° 1 mm 1 mps 708 mmHg 97%
    Show more